Rolla, ND

3:29 PM CDT on September 27, 2016 (GMT -0500)
Rolla

Weather History for K06D - December, 2012

Change the Weather History Date:

Saturday, December 1, 2012

  Actual Average (KRUG) Record (KRUG)
Temperature  
Mean Temperature 26 °F -  
Max Temperature 32 °F 26 °F 52 °F (1969)
Min Temperature 21 °F 6 °F -18 °F (1978)
Degree Days  
Heating Degree Days 38    
Moisture  
Dew Point 25 °F    
Average Humidity 100    
Maximum Humidity 100    
Minimum Humidity 100    
Precipitation  
Precipitation 0.00 in - - ()
Sea Level Pressure  
Sea Level Pressure 29.74 in    
Wind  
Wind Speed 12 mph (NNW)    
Max Wind Speed 23 mph    
Max Gust Speed 26 mph    
Visibility 2 miles    
Events Fog    
Averages and records for this station are not official NWS values.
T = Trace of Precipitation, MM = Missing Value Source: NWS Daily Summary

Daily Weather History Graph

Daily Weather History Graph

Search for Another Location

Airport or City:

Trip Planner

Search our weather history database for the weather conditions in past years. The results will help you decide how hot, cold, wet, or windy it might be!

Date:

Astronomy

Dec. 01, 2012 Rise Set
Actual Time 8:11 AM CST 4:43 PM CST
Civil Twilight 7:35 AM CST 5:20 PM CST
Nautical Twilight 6:55 AM CST 5:59 PM CST
Astronomical Twilight 6:17 AM CST 6:38 PM CST
Moon 7:40 PM CST (12/1) 10:21 AM CST (12/1)
Length of Visible Light 9h 45m
Length of Day
8h 32m
Waning Gibbous, 91% of the Moon is Illuminated
Dec 1
Waning Gibbous
Dec 6
Last Quarter
Dec 13
New
Dec 19
First Quarter
Dec 28
Full

Hourly Weather History & Observations

Time (CST) Temp. Windchill Dew Point Humidity Pressure Visibility Wind Dir Wind Speed Gust Speed Precip Events Conditions
12:15 AM 26.6 °F 14.3 °F 26.6 °F 100% 29.66 in 4.0 mi South 16.1 mph 20.7 mph N/A   Overcast
12:35 AM 26.6 °F 13.8 °F 26.6 °F 100% 29.66 in 4.0 mi South 17.3 mph - N/A   Overcast
12:55 AM 26.6 °F 13.8 °F 26.6 °F 100% 29.65 in 3.0 mi South 17.3 mph - N/A   Overcast
1:15 AM 26.6 °F 14.3 °F 26.6 °F 100% 29.65 in 3.0 mi SSW 16.1 mph 20.7 mph N/A   Overcast
1:35 AM 26.6 °F 13.4 °F 26.6 °F 100% 29.64 in 3.0 mi SSW 18.4 mph 21.9 mph N/A   Overcast
1:55 AM 26.6 °F 15.2 °F 26.6 °F 100% 29.64 in 4.0 mi SSW 13.8 mph - N/A   Overcast
2:15 AM 26.6 °F 17.5 °F 26.6 °F 100% 29.64 in 4.0 mi SW 9.2 mph - N/A   Overcast
3:35 AM 26.6 °F 16.2 °F 26.6 °F 100% 29.61 in 3.0 mi SSW 11.5 mph - N/A   Overcast
3:55 AM 26.6 °F 17.5 °F 26.6 °F 100% 29.62 in 3.0 mi West 9.2 mph - N/A   Overcast
4:15 AM 26.6 °F 19.1 °F 26.6 °F 100% 29.63 in 5.0 mi SSW 6.9 mph - N/A   Overcast
4:35 AM 26.6 °F 20.0 °F 26.6 °F 100% 29.61 in 5.0 mi SW 5.8 mph - N/A   Overcast
5:15 AM 26.6 °F 20.0 °F 26.6 °F 100% 29.63 in 5.0 mi SW 5.8 mph - N/A   Overcast
5:35 AM 26.6 °F 18.2 °F 26.6 °F 100% 29.64 in 5.0 mi West 8.1 mph - N/A   Overcast
6:35 AM 26.6 °F 19.1 °F 26.6 °F 100% 29.65 in 5.0 mi NNW 6.9 mph - N/A   Scattered Clouds
6:55 AM 24.8 °F 16.1 °F 24.8 °F 100% 29.65 in 5.0 mi NNW 8.1 mph - N/A   Clear
7:15 AM 24.8 °F - 24.8 °F 100% 29.65 in 5.0 mi Calm Calm - N/A   Clear
7:35 AM 24.8 °F - 24.8 °F 100% 29.66 in 5.0 mi Calm Calm - N/A   Clear
7:55 AM 24.8 °F 19.1 °F 24.8 °F 100% 29.67 in 4.0 mi NNW 4.6 mph - N/A   Mostly Cloudy
8:15 AM 24.8 °F - 24.8 °F 100% 29.68 in 3.0 mi Calm Calm - N/A   Overcast
8:35 AM 24.8 °F 16.9 °F 24.8 °F 100% 29.69 in 3.0 mi North 6.9 mph - N/A   Overcast
8:55 AM 28.4 °F 17.0 °F 28.4 °F 100% 29.69 in 6.0 mi NNW 15.0 mph - N/A   Overcast
9:15 AM 32.0 °F 19.8 °F 32.0 °F 100% 29.69 in 9.0 mi NNW 20.7 mph - N/A   Overcast
9:35 AM 32.0 °F 19.2 °F 32.0 °F 100% 29.69 in 5.0 mi NNW 23.0 mph - N/A   Overcast
9:55 AM 32.0 °F 19.5 °F 32.0 °F 100% 29.69 in 4.0 mi NNW 21.9 mph 26.5 mph N/A   Overcast
10:15 AM 30.2 °F 17.1 °F 30.2 °F 100% 29.70 in 3.0 mi NNW 21.9 mph - N/A   Overcast
10:35 AM 30.2 °F 17.8 °F 30.2 °F 100% 29.72 in 2.0 mi NNW 19.6 mph - N/A   Overcast
10:55 AM 30.2 °F 18.9 °F 30.2 °F 100% 29.72 in 1.8 mi NNW 16.1 mph - N/A   Overcast
11:15 AM 30.2 °F 18.5 °F 30.2 °F 100% 29.73 in 1.5 mi NNW 17.3 mph - N/A   Overcast
11:35 AM 30.2 °F 18.9 °F 30.2 °F 100% 29.73 in 1.0 mi NNW 16.1 mph - N/A   Overcast
11:55 AM 28.4 °F 16.6 °F 28.4 °F 100% 29.72 in 0.8 mi NNW 16.1 mph - N/A   Overcast
12:15 PM 28.4 °F 16.6 °F 28.4 °F 100% 29.73 in 0.5 mi NW 16.1 mph - N/A Fog Light Freezing Fog
12:35 PM 28.4 °F 18.0 °F 28.4 °F 100% 29.74 in 0.5 mi NW 12.7 mph - N/A Fog Light Freezing Fog
12:55 PM 26.6 °F 15.7 °F 26.6 °F 100% 29.74 in 0.2 mi NW 12.7 mph - N/A Fog Light Freezing Fog
1:15 PM 26.6 °F 15.7 °F 26.6 °F 100% 29.74 in 0.8 mi North 12.7 mph - N/A   Overcast
1:35 PM 26.6 °F 15.7 °F 26.6 °F 100% 29.76 in 0.8 mi North 12.7 mph - N/A   Overcast
1:55 PM 26.6 °F 15.2 °F 26.6 °F 100% 29.76 in 0.5 mi NNW 13.8 mph - N/A Fog Light Freezing Fog
2:15 PM 26.6 °F 16.2 °F 26.6 °F 100% 29.76 in 1.0 mi North 11.5 mph - N/A   Overcast
2:35 PM 26.6 °F 15.7 °F 26.6 °F 100% 29.76 in 0.5 mi NNW 12.7 mph - N/A Fog Light Freezing Fog
3:15 PM 24.8 °F 14.6 °F 24.8 °F 100% 29.78 in 0.2 mi NNW 10.4 mph - N/A Fog Light Freezing Fog
3:35 PM 24.8 °F 15.3 °F 24.8 °F 100% 29.79 in 0.5 mi NNW 9.2 mph - N/A Fog Light Freezing Fog
3:55 PM 24.8 °F 14.0 °F 24.8 °F 100% 29.79 in 0.2 mi North 11.5 mph - N/A Fog Light Freezing Fog
4:15 PM 24.8 °F 14.6 °F 24.8 °F 100% 29.80 in 0.2 mi North 10.4 mph - N/A Fog Light Freezing Fog
4:35 PM 24.8 °F 14.6 °F 24.8 °F 100% 29.80 in 0.2 mi North 10.4 mph - N/A Fog Light Freezing Fog
4:55 PM 24.8 °F 14.6 °F 24.8 °F 100% 29.80 in 0.2 mi North 10.4 mph - N/A Fog Light Freezing Fog
5:15 PM 24.8 °F 15.3 °F 24.8 °F 100% 29.81 in 0.5 mi North 9.2 mph - N/A Fog Light Freezing Fog
5:55 PM 23.0 °F 11.7 °F 23.0 °F 100% 29.79 in 0.5 mi ENE 11.5 mph - N/A Fog Light Freezing Fog
6:15 PM 23.0 °F 13.9 °F 23.0 °F 100% 29.80 in 0.5 mi ENE 8.1 mph - N/A Fog Light Freezing Fog
6:35 PM 21.2 °F 12.6 °F 21.2 °F 100% 29.80 in 0.5 mi NE 6.9 mph - N/A Fog Light Freezing Fog
6:55 PM 21.2 °F 14.9 °F 21.2 °F 100% 29.82 in 0.5 mi ENE 4.6 mph - N/A Fog Light Freezing Fog
7:15 PM 21.2 °F 16.4 °F 21.2 °F 100% 29.82 in 0.5 mi NE 3.5 mph - N/A Fog Light Freezing Fog
7:35 PM 21.2 °F 14.9 °F 21.2 °F 100% 29.82 in 0.2 mi NE 4.6 mph - N/A Fog Light Freezing Fog
7:55 PM 21.2 °F 16.4 °F 21.2 °F 100% 29.83 in 0.2 mi NE 3.5 mph - N/A Fog Light Freezing Fog
8:15 PM 21.2 °F - 21.2 °F 100% 29.82 in 0.5 mi Calm Calm - N/A Fog Light Freezing Fog
8:35 PM 21.2 °F 16.4 °F 21.2 °F 100% 29.82 in 0.5 mi ENE 3.5 mph - N/A Fog Light Freezing Fog
8:55 PM 21.2 °F 14.9 °F 21.2 °F 100% 29.83 in 0.5 mi SE 4.6 mph - N/A Fog Light Freezing Fog
9:15 PM 21.2 °F 13.6 °F 21.2 °F 100% 29.82 in 0.5 mi ESE 5.8 mph - N/A Fog Light Freezing Fog
9:35 PM 21.2 °F 12.6 °F 21.2 °F 100% 29.81 in 0.5 mi ESE 6.9 mph - N/A Fog Light Freezing Fog
9:55 PM 21.2 °F 13.6 °F 21.2 °F 100% 29.81 in 1.2 mi SE 5.8 mph - N/A   Overcast
10:15 PM 21.2 °F 14.9 °F 21.2 °F 100% 29.82 in 1.0 mi SSE 4.6 mph - N/A   Overcast
10:35 PM 21.2 °F 14.9 °F 21.2 °F 100% 29.82 in 1.5 mi SSE 4.6 mph - N/A   Overcast
10:55 PM 21.2 °F 13.6 °F 21.2 °F 100% 29.82 in 0.5 mi SSE 5.8 mph - N/A Fog Light Freezing Fog
11:15 PM 23.0 °F 17.0 °F 23.0 °F 100% 29.82 in 0.5 mi SSE 4.6 mph - N/A Fog Light Freezing Fog
11:35 PM 23.0 °F 17.0 °F 23.0 °F 100% 29.82 in 0.5 mi SSE 4.6 mph - N/A Fog Light Freezing Fog
11:55 PM 23.0 °F 15.8 °F 23.0 °F 100% 29.81 in 0.5 mi SE 5.8 mph - N/A Fog Light Freezing Fog